Torna al catalogo

STARLINK-32355

AttivoComunicazioniVLEO
NORAD 61634·PAYLOAD·🇺🇸 United States

Lanciato Oct 23, 2024 da Cape Canaveral Space Force Station

Loading…

Prossimi Passaggi (prossime 24 ore)

TLE

AggiornatoSource: CelesTrak SupGP

Epoca: Sep 14, 2026, 21:14 UTC

1 61634C 24191P   26257.88520833 -.00027328  00000+0 -98922-3 0  2579
2 61634  43.0001 169.8215 0000925 276.3556 226.0483 15.27612079    18

Traccia STARLINK-32355 in tempo reale con AllMySat

Download on the App Store